Location: Dalton
(34.7700°N, 84.9700°W)
Time: 03:36:50
(UTC-04:00)

OTV 5 (USA 277) - Pass Details

Date: 12 October 2017
Orbit: 404 x 417 km, 43.0° (Epoch: 07 September)

Event Time Altitude Azimuth Distance (km) Brightness Sun altitude
Rises 19:35:17 0° 255° (WSW) 2,345 ? -6.3°
Reaches altitude 10° 19:37:26 10° 262° (W) 1,485 ? -6.7°
Maximum altitude 19:40:42 47° 337° (NNW) 561 ? -7.4°
Drops below altitude 10° 19:43:58 10° 53° (NE) 1,489 ? -8.0°
Enters shadow 19:44:25 - 55° (NE) 1,666 ? -8.1°
